Location: Charbonni�res
(45.9952°N, 2.9982°E)
Time: 18:07:21
(UTC+00:00)

Cosmos 1812 - Pass Details

Date: 29 November 2020
Orbit: 517 x 520 km, 82.5° (Epoch: 17 January)

Event Time Altitude Azimuth Distance (km) Brightness Sun altitude
Exits shadow 05:43:44 - 346° (NNW) 2,050 5.4 -14.1°
Reaches altitude 10° 05:44:27 10° 345° (NNW) 1,759 5.1 -14.0°
Maximum altitude 05:48:15 62° 264° (W) 587 2.7 -13.3°
Drops below altitude 10° 05:52:02 10° 184° (S) 1,744 5.6 -12.7°
Sets 05:54:10 0° 181° (S) 2,627 6.5 -12.4°
